�������l�o���
Date,Time,MP-1(��Sv/h),MP-2(��Sv/h),MP-3(��Sv/h),MP-4(��Sv/h),MP-5(��Sv/h),MP-6(��Sv/h),MP-7(��Sv/h),MP-8(��Sv/h),����,����(m/s),���J
2022/10/10,00:00,0.546,0.777,0.508,0.979,0.674,0.331,0.569,0.540,�k��,8.8,�L
2022/10/10,00:10,0.544,0.777,0.507,0.978,0.675,0.331,0.570,0.542,�k��,7.6,�L
2022/10/10,00:20,0.547,0.779,0.508,0.979,0.674,0.329,0.570,0.543,�k��,7.5,��
2022/10/10,00:30,0.547,0.776,0.509,0.979,0.673,0.330,0.569,0.541,�k��,7.3,�L
2022/10/10,00:40,0.545,0.778,0.507,0.980,0.673,0.330,0.567,0.543,�k��,7.3,�L
2022/10/10,00:50,0.546,0.778,0.505,0.979,0.674,0.331,0.570,0.543,�k�k��,7.0,�L
2022/10/10,01:00,0.547,0.775,0.507,0.979,0.672,0.331,0.569,0.543,�k�k��,7.2,�L
2022/10/10,01:10,0.545,0.777,0.508,0.978,0.672,0.332,0.569,0.544,�k��,6.5,�L
2022/10/10,01:20,0.547,0.777,0.508,0.976,0.673,0.332,0.569,0.542,�k��,5.6,�L
2022/10/10,01:30,0.547,0.774,0.508,0.981,0.672,0.329,0.569,0.542,�k��,4.0,�L
2022/10/10,01:40,0.546,0.777,0.508,0.981,0.673,0.332,0.568,0.543,�k��,5.1,�L
2022/10/10,01:50,0.546,0.776,0.509,0.980,0.673,0.331,0.568,0.542,�k��,4.6,�L
2022/10/10,02:00,0.547,0.780,0.509,0.979,0.676,0.332,0.569,0.543,�k��,4.3,�L
2022/10/10,02:10,0.548,0.781,0.509,0.980,0.676,0.333,0.569,0.543,�k��,3.9,�L
2022/10/10,02:20,0.548,0.780,0.511,0.980,0.673,0.333,0.568,0.541,�k��,3.3,�L
2022/10/10,02:30,0.548,0.779,0.512,0.979,0.676,0.332,0.569,0.542,�k��,4.2,�L
2022/10/10,02:40,0.547,0.780,0.512,0.976,0.674,0.334,0.569,0.543,�k��,3.6,�L
2022/10/10,02:50,0.548,0.782,0.510,0.978,0.675,0.333,0.568,0.543,�k�k��,3.8,�L
2022/10/10,03:00,0.549,0.779,0.510,0.977,0.675,0.333,0.568,0.542,�k�k��,2.2,�L
2022/10/10,03:10,0.547,0.779,0.510,0.977,0.675,0.332,0.569,0.542,�k,3.9,��
2022/10/10,03:20,0.546,0.777,0.509,0.977,0.676,0.332,0.568,0.542,�k��,2.2,�L
2022/10/10,03:30,0.546,0.780,0.507,0.975,0.675,0.332,0.568,0.542,�k�k��,1.1,�L
2022/10/10,03:40,0.546,0.776,0.508,0.977,0.672,0.330,0.568,0.540,�k�k��,1.9,�L
2022/10/10,03:50,0.546,0.777,0.507,0.974,0.671,0.332,0.566,0.541,�k,2.2,�L
2022/10/10,04:00,0.545,0.773,0.507,0.972,0.672,0.331,0.567,0.540,�k��,1.2,�L
2022/10/10,04:10,0.543,0.772,0.508,0.967,0.668,0.331,0.565,0.538,�k�k��,2.3,�L
2022/10/10,04:20,0.544,0.773,0.510,0.970,0.668,0.332,0.563,0.539,�k�k��,3.6,�L
2022/10/10,04:30,0.545,0.776,0.511,0.969,0.671,0.331,0.567,0.540,�k,3.4,�L
2022/10/10,04:40,0.545,0.776,0.508,0.969,0.670,0.331,0.566,0.540,�k,3.0,�L
2022/10/10,04:50,0.544,0.777,0.510,0.972,0.671,0.333,0.565,0.540,�k,3.5,�L
2022/10/10,05:00,0.549,0.777,0.511,0.972,0.672,0.333,0.565,0.540,�k,3.2,�L
2022/10/10,05:10,0.547,0.779,0.510,0.971,0.670,0.333,0.567,0.538,�k�k��,3.3,�L
2022/10/10,05:20,0.546,0.777,0.510,0.971,0.671,0.331,0.566,0.539,�k,3.1,�L
2022/10/10,05:30,0.546,0.775,0.510,0.970,0.670,0.332,0.564,0.539,�k,3.8,�L
2022/10/10,05:40,0.546,0.779,0.508,0.972,0.670,0.332,0.565,0.539,�k,3.4,�L
2022/10/10,05:50,0.545,0.777,0.509,0.972,0.670,0.332,0.566,0.539,�k,3.8,�L
2022/10/10,06:00,0.544,0.776,0.508,0.971,0.670,0.331,0.565,0.539,�k,3.4,�L
2022/10/10,06:10,0.545,0.776,0.506,0.969,0.671,0.331,0.566,0.538,�k�k��,3.1,�L
2022/10/10,06:20,0.545,0.777,0.508,0.972,0.670,0.332,0.564,0.540,�k�k��,3.0,�L
2022/10/10,06:30,0.546,0.776,0.509,0.971,0.672,0.331,0.566,0.541,�k,3.0,�L
2022/10/10,06:40,0.547,0.776,0.507,0.971,0.670,0.333,0.565,0.540,�k,2.9,�L
2022/10/10,06:50,0.544,0.778,0.506,0.974,0.671,0.331,0.566,0.538,�k,2.3,�L
2022/10/10,07:00,0.546,0.775,0.507,0.972,0.670,0.331,0.566,0.540,�k�k��,3.2,�L
2022/10/10,07:10,0.545,0.776,0.506,0.970,0.671,0.331,0.565,0.539,�k�k��,3.3,�L
2022/10/10,07:20,0.544,0.776,0.505,0.971,0.669,0.330,0.565,0.539,�k�k��,1.7,�L
2022/10/10,07:30,0.543,0.776,0.507,0.969,0.670,0.329,0.565,0.540,�k��,1.7,�L
2022/10/10,07:40,0.545,0.776,0.507,0.971,0.670,0.331,0.565,0.538,���k��,1.2,�L
2022/10/10,07:50,0.545,0.773,0.507,0.971,0.671,0.329,0.566,0.539,���k��,1.5,�L
2022/10/10,08:00,0.544,0.775,0.505,0.974,0.668,0.329,0.566,0.539,���k��,1.2,�L
2022/10/10,08:10,0.545,0.773,0.506,0.972,0.671,0.329,0.566,0.539,�k��,1.4,�L
2022/10/10,08:20,0.545,0.776,0.507,0.971,0.671,0.329,0.565,0.540,�k��,1.2,�L
2022/10/10,08:30,0.545,0.773,0.506,0.974,0.671,0.330,0.565,0.539,�k��,1.4,�L
2022/10/10,08:40,0.546,0.774,0.507,0.972,0.672,0.330,0.566,0.540,�k�k��,0.9,�L
2022/10/10,08:50,0.546,0.777,0.507,0.974,0.673,0.330,0.566,0.539,�k��,0.9,�L
2022/10/10,09:00,0.545,0.777,0.507,0.972,0.671,0.329,0.566,0.541,�k�k��,1.4,�L
2022/10/10,09:10,0.546,0.775,0.506,0.975,0.670,0.330,0.566,0.540,�k�k��,2.2,��
2022/10/10,09:20,0.546,0.776,0.508,0.974,0.673,0.329,0.568,0.540,�k�k��,1.1,��
2022/10/10,09:30,0.544,0.773,0.506,0.974,0.673,0.328,0.566,0.540,�k�k��,0.9,��
2022/10/10,09:40,0.545,0.777,0.506,0.975,0.672,0.327,0.566,0.538,-,CALM,��
2022/10/10,09:50,0.544,0.776,0.504,0.973,0.672,0.329,0.566,0.539,-,CALM,��
2022/10/10,10:00,0.544,0.775,0.505,0.974,0.672,0.328,0.566,0.539,��,0.6,��
2022/10/10,10:10,0.544,0.774,0.505,0.976,0.673,0.328,0.567,0.539,��,1.1,��
2022/10/10,10:20,0.545,0.774,0.506,0.974,0.672,0.328,0.567,0.541,���쓌,1.2,��
2022/10/10,10:30,0.545,0.776,0.509,0.972,0.669,0.328,0.568,0.540,�쓌,2.6,��
2022/10/10,10:40,0.546,0.775,0.506,0.975,0.672,0.329,0.568,0.539,��쓌,3.5,��
2022/10/10,10:50,0.544,0.775,0.505,0.975,0.672,0.328,0.568,0.540,�쓌,3.1,��
2022/10/10,11:00,0.545,0.776,0.506,0.973,0.672,0.329,0.569,0.541,��쓌,2.3,��
2022/10/10,11:10,0.544,0.777,0.505,0.976,0.672,0.329,0.569,0.540,��쓌,4.7,��
2022/10/10,11:20,0.546,0.776,0.505,0.976,0.672,0.327,0.569,0.540,��쓌,4.1,��
2022/10/10,11:30,0.546,0.776,0.506,0.974,0.672,0.330,0.570,0.540,��쓌,5.3,��
2022/10/10,11:40,0.547,0.779,0.504,0.977,0.674,0.330,0.569,0.539,��쓌,7.9,��
2022/10/10,11:50,0.547,0.779,0.507,0.975,0.675,0.330,0.570,0.542,��쓌,8.1,��
2022/10/10,12:00,0.548,0.780,0.509,0.976,0.674,0.329,0.569,0.541,��쓌,7.9,��
2022/10/10,12:10,0.548,0.781,0.508,0.977,0.674,0.329,0.570,0.539,��쓌,7.5,��
2022/10/10,12:20,0.549,0.782,0.508,0.975,0.675,0.330,0.569,0.541,��쓌,8.6,��
2022/10/10,12:30,0.548,0.781,0.509,0.976,0.676,0.330,0.571,0.540,��쓌,9.4,�L
2022/10/10,12:40,0.548,0.783,0.506,0.979,0.676,0.328,0.569,0.540,��쓌,9.1,��
2022/10/10,12:50,0.548,0.782,0.509,0.977,0.676,0.330,0.569,0.540,��쓌,9.9,��
2022/10/10,13:00,0.550,0.783,0.509,0.978,0.677,0.329,0.570,0.541,��쓌,10.5,��
2022/10/10,13:10,0.549,0.783,0.508,0.978,0.676,0.330,0.569,0.541,��,8.1,��
2022/10/10,13:20,0.548,0.784,0.509,0.979,0.677,0.330,0.570,0.542,��쓌,9.8,��
2022/10/10,13:30,0.550,0.781,0.508,0.979,0.677,0.330,0.571,0.541,��쓌,9.9,��
2022/10/10,13:40,0.550,0.782,0.507,0.979,0.677,0.330,0.571,0.541,��쓌,9.9,��
2022/10/10,13:50,0.549,0.783,0.509,0.979,0.678,0.330,0.572,0.540,��쓌,10.0,��
2022/10/10,14:00,0.550,0.782,0.508,0.980,0.677,0.330,0.572,0.540,��쓌,8.2,��
2022/10/10,14:10,0.549,0.784,0.510,0.979,0.677,0.331,0.571,0.541,��쓌,7.2,��
2022/10/10,14:20,0.550,0.784,0.508,0.981,0.678,0.330,0.573,0.541,��,7.0,��
2022/10/10,14:30,0.553,0.783,0.509,0.979,0.677,0.330,0.573,0.541,��,6.1,��
2022/10/10,14:40,0.548,0.784,0.508,0.980,0.678,0.330,0.572,0.541,��,5.1,��
2022/10/10,14:50,0.550,0.784,0.509,0.981,0.677,0.331,0.574,0.542,��,4.9,��
2022/10/10,15:00,0.552,0.783,0.510,0.982,0.679,0.331,0.573,0.542,��,6.5,��
2022/10/10,15:10,0.552,0.784,0.511,0.979,0.678,0.331,0.572,0.543,��쐼,5.7,��
2022/10/10,15:20,0.551,0.784,0.510,0.981,0.678,0.332,0.573,0.540,��쐼,4.9,��
2022/10/10,15:30,0.551,0.784,0.511,0.979,0.678,0.331,0.573,0.543,��쐼,4.5,��
2022/10/10,15:40,0.550,0.784,0.511,0.981,0.678,0.331,0.573,0.542,�쐼,4.8,��
2022/10/10,15:50,0.553,0.785,0.512,0.981,0.680,0.330,0.573,0.541,�쐼,4.4,��
2022/10/10,16:00,0.552,0.788,0.511,0.982,0.680,0.331,0.573,0.541,�쐼,4.6,��
2022/10/10,16:10,0.551,0.786,0.511,0.981,0.680,0.331,0.573,0.543,�쐼,4.2,�L
2022/10/10,16:20,0.551,0.786,0.512,0.984,0.679,0.330,0.572,0.543,�쐼,3.2,��
2022/10/10,16:30,0.551,0.785,0.511,0.983,0.679,0.330,0.572,0.542,���쐼,2.9,��
2022/10/10,16:40,0.553,0.787,0.513,0.984,0.681,0.331,0.572,0.544,��,2.9,��
2022/10/10,16:50,0.551,0.788,0.511,0.981,0.678,0.332,0.573,0.543,��,3.0,��
2022/10/10,17:00,0.552,0.786,0.513,0.981,0.682,0.331,0.573,0.543,���쐼,2.3,��
2022/10/10,17:10,0.551,0.786,0.512,0.981,0.681,0.331,0.571,0.542,�쐼,2.0,��
2022/10/10,17:20,0.551,0.787,0.513,0.981,0.681,0.333,0.572,0.543,�쐼,2.8,��
2022/10/10,17:30,0.551,0.790,0.514,0.982,0.683,0.331,0.574,0.544,�쐼,1.2,��
2022/10/10,17:40,0.550,0.789,0.513,0.984,0.682,0.332,0.572,0.543,���쐼,0.8,��
2022/10/10,17:50,0.553,0.791,0.513,0.983,0.683,0.331,0.574,0.542,�쐼,1.2,��
2022/10/10,18:00,0.555,0.790,0.514,0.983,0.683,0.331,0.574,0.543,�쐼,1.2,��
2022/10/10,18:10,0.554,0.791,0.513,0.984,0.682,0.332,0.571,0.542,�쐼,2.3,��
2022/10/10,18:20,0.553,0.791,0.515,0.983,0.683,0.331,0.573,0.544,�쐼,3.1,��
2022/10/10,18:30,0.552,0.792,0.514,0.985,0.683,0.331,0.572,0.543,�쐼,3.4,��
2022/10/10,18:40,0.554,0.791,0.512,0.983,0.684,0.333,0.572,0.546,�쐼,2.8,��
2022/10/10,18:50,0.553,0.792,0.514,0.984,0.683,0.331,0.572,0.543,��쐼,2.9,��
2022/10/10,19:00,0.553,0.792,0.514,0.985,0.682,0.331,0.572,0.542,��쐼,2.0,��
2022/10/10,19:10,0.554,0.790,0.515,0.986,0.683,0.332,0.571,0.542,��쐼,1.5,��
2022/10/10,19:20,0.552,0.792,0.514,0.984,0.684,0.332,0.572,0.543,��쐼,1.7,��
2022/10/10,19:30,0.554,0.790,0.513,0.985,0.683,0.331,0.573,0.543,��쐼,1.7,��
2022/10/10,19:40,0.554,0.794,0.515,0.984,0.684,0.331,0.573,0.542,�쐼,2.0,��
2022/10/10,19:50,0.553,0.792,0.512,0.985,0.685,0.332,0.575,0.544,��쐼,2.6,��
2022/10/10,20:00,0.554,0.793,0.515,0.983,0.684,0.332,0.573,0.544,�쐼,2.8,��
2022/10/10,20:10,0.554,0.793,0.514,0.984,0.685,0.331,0.572,0.542,�쐼,3.2,��
2022/10/10,20:20,0.554,0.791,0.514,0.984,0.685,0.331,0.573,0.543,�쐼,2.2,��
2022/10/10,20:30,0.553,0.792,0.514,0.982,0.685,0.332,0.572,0.544,���쐼,2.6,��
2022/10/10,20:40,0.554,0.792,0.514,0.984,0.684,0.332,0.573,0.543,���쐼,2.3,��
2022/10/10,20:50,0.553,0.793,0.514,0.984,0.685,0.331,0.573,0.544,���쐼,2.3,��
2022/10/10,21:00,0.554,0.792,0.514,0.986,0.685,0.332,0.573,0.544,���쐼,2.6,��
2022/10/10,21:10,0.555,0.792,0.514,0.986,0.686,0.330,0.574,0.544,���쐼,2.5,��
2022/10/10,21:20,0.555,0.791,0.512,0.986,0.687,0.333,0.572,0.545,��,2.5,��
2022/10/10,21:30,0.553,0.792,0.514,0.985,0.686,0.332,0.574,0.544,���쐼,2.2,��
2022/10/10,21:40,0.555,0.791,0.515,0.985,0.686,0.333,0.572,0.545,�쐼,1.7,��
2022/10/10,21:50,0.554,0.791,0.513,0.986,0.686,0.333,0.574,0.544,���쐼,3.4,��
2022/10/10,22:00,0.554,0.793,0.513,0.984,0.685,0.333,0.573,0.547,���쐼,2.6,��
2022/10/10,22:10,0.554,0.793,0.515,0.985,0.685,0.331,0.574,0.546,�쐼,4.1,��
2022/10/10,22:20,0.554,0.791,0.514,0.987,0.686,0.333,0.573,0.546,���쐼,3.2,��
2022/10/10,22:30,0.554,0.792,0.515,0.986,0.688,0.331,0.575,0.546,���쐼,3.5,��
2022/10/10,22:40,0.555,0.792,0.514,0.986,0.687,0.333,0.573,0.545,���쐼,3.5,��
2022/10/10,22:50,0.555,0.792,0.514,0.987,0.687,0.332,0.574,0.545,���쐼,3.5,��
2022/10/10,23:00,0.552,0.793,0.513,0.987,0.687,0.331,0.574,0.543,���쐼,3.2,��
2022/10/10,23:10,0.554,0.793,0.514,0.984,0.687,0.331,0.574,0.546,���쐼,3.7,��
2022/10/10,23:20,0.554,0.790,0.513,0.987,0.687,0.331,0.573,0.545,���쐼,3.8,��
2022/10/10,23:30,0.554,0.792,0.514,0.985,0.686,0.333,0.574,0.544,���쐼,3.4,��
2022/10/10,23:40,0.554,0.793,0.515,0.987,0.687,0.330,0.573,0.544,���쐼,3.8,��
2022/10/10,23:50,0.553,0.793,0.515,0.985,0.687,0.331,0.573,0.544,���쐼,3.4,��
